Weather in Venev

Russia / Tula Oblast     54°21′01″N   38°15′55″E
temp.,
°C
wind,
m/s
gust,
m/s
humid.,
%
clouds,
%
prec.,
mm/h
press.,
hPa
HPBL,
m
12 august, fri
fri1200:00+16ne33690 0.0 102541
03:00+15ene33690 0.0 102536
06:00+14ne34770 0.0 102564
09:00+20ene34630 0.0 1025376
12:00+24ene33505 0.0 10251029
15:00+25ne33465 0.0 10231108
18:00+25ne23575 0.0 1023150
21:00+19ne22665 0.0 102314
13 august, sat
sat1300:00+17ne34685 0.0 102353
03:00+16ene33683 0.0 102330
06:00+15ene34730 0.0 102360
09:00+21ene34580 0.0 1022307
12:00+25ene334853 0.0 1022863
15:00+27ene33447 0.0 10211129
18:00+25ne245560 0.0 1020126
21:00+20ne3360100 0.0 102023
14 august, sun
sun1400:00+18ene365891 0.0 102084
03:00+17e225998 0.0 102012
06:00+17ne3563100 0.0 101981
09:00+22ene455373 0.0 1019273
12:00+26ese444492 0.0 1019909
15:00+27ese334153 0.0 10181301
18:00+26s235517 0.0 1018122
21:00+21ene2260100 0.0 101912
15 august, mon
mon1500:00+20e345878 0.0 101955
03:00+18ene355837 0.0 101977
06:00+17e36637 0.0 102092
09:00+23e575754 0.0 1019372
12:00+27e674560 0.0 10191517
15:00+29ese45345 0.0 10182046
18:00+27e24489 0.0 101881
21:00+22e412565 0.0 1019202
16 august, tue
tue1600:00+21ese5145241 0.0 1020288
03:00+19e4115897 0.0 1020224
06:00+17e4116937 0.0 1021211
09:00+23ese610549 0.0 1021486
12:00+27ese710400 0.0 10201845
15:00+29ese79351 0.0 10192236
18:00+27e594421 0.0 1018320
21:00+24e71545100 0.0 1018429